• In Deutschland
  • Länderverzeichnis
  • Für 7 Tage
  • Wassertemperatur
  • Satellitenkarten
  • Wetterkarte
  • Widgets
  • user-avatar
    Anmelden

    Stündliche Wetter Baltschik

    Heute, 22 Juli, Sonntag

    Zeit Temperatur Niederschläge Wind Luftdruck Luftfeuchtigkeit
    00:00 +23°C° 0,1 mm 1 m/S 736 mmHg 79%
    01:00 +22°C° 0,1 mm 1 m/S 736 mmHg 79%
    02:00 +22°C° 0 mm 1 m/S 736 mmHg 83%
    03:00 +21°C° 0,2 mm 1 m/S 736 mmHg 84%
    04:00 +21°C° 0,2 mm 1 m/S 736 mmHg 84%
    05:00 +21°C° 0,2 mm 1 m/S 736 mmHg 85%
    06:00 +23°C° 0 mm 1 m/S 736 mmHg 79%
    07:00 +24°C° 0 mm 1 m/S 736 mmHg 73%
    08:00 +26°C° 0 mm 1 m/S 736 mmHg 67%
    09:00 +28°C° 0 mm 1 m/S 736 mmHg 61%
    10:00 +29°C° 0 mm 1 m/S 736 mmHg 56%
    11:00 +31°C° 0 mm 1 m/S 736 mmHg 51%
    12:00 +31°C° 0,1 mm 1 m/S 735 mmHg 48%
    13:00 +32°C° 0,1 mm 1 m/S 735 mmHg 46%
    14:00 +32°C° 0,1 mm 2 m/S 735 mmHg 44%
    15:00 +32°C° 0 mm 2 m/S 734 mmHg 46%
    16:00 +31°C° 0 mm 3 m/S 734 mmHg 49%
    17:00 +31°C° 0 mm 3 m/S 734 mmHg 51%
    18:00 +29°C° 0 mm 3 m/S 734 mmHg 58%
    19:00 +27°C° 0 mm 3 m/S 733 mmHg 66%
    20:00 +25°C° 0 mm 3 m/S 733 mmHg 73%
    21:00 +25°C° 0,4 mm 3 m/S 733 mmHg 77%
    22:00 +24°C° 0,4 mm 3 m/S 733 mmHg 80%
    23:00 +24°C° 0,4 mm 3 m/S 733 mmHg 83%

    Morgen, 23 Juli, Montag

    Zeit Temperatur Niederschläge Wind Luftdruck Luftfeuchtigkeit
    00:00 +22°C° 0,1 mm 3 m/S 733 mmHg 84%
    01:00 +23°C° 0,1 mm 2 m/S 733 mmHg 84%
    02:00 +23°C° 0,1 mm 2 m/S 733 mmHg 84%
    03:00 +23°C° 0,4 mm 2 m/S 733 mmHg 85%
    04:00 +23°C° 0,4 mm 2 m/S 732 mmHg 85%
    05:00 +21°C° 0,4 mm 2 m/S 732 mmHg 85%
    06:00 +24°C° 0,2 mm 1 m/S 732 mmHg 79%
    07:00 +25°C° 0,2 mm 1 m/S 732 mmHg 73%
    08:00 +27°C° 0,2 mm 1 m/S 732 mmHg 67%
    09:00 +28°C° 1 mm 2 m/S 732 mmHg 64%
    10:00 +29°C° 1 mm 2 m/S 732 mmHg 61%
    11:00 +30°C° 1 mm 2 m/S 732 mmHg 57%
    12:00 +29°C° 1,1 mm 2 m/S 732 mmHg 59%
    13:00 +29°C° 1,1 mm 2 m/S 732 mmHg 61%
    14:00 +28°C° 1,1 mm 3 m/S 731 mmHg 63%
    15:00 +29°C° 0,2 mm 3 m/S 731 mmHg 62%
    16:00 +29°C° 0,2 mm 3 m/S 731 mmHg 61%
    17:00 +29°C° 0,2 mm 3 m/S 730 mmHg 59%
    18:00 +27°C° 0,7 mm 3 m/S 730 mmHg 67%
    19:00 +26°C° 0,7 mm 3 m/S 730 mmHg 75%
    20:00 +24°C° 0,7 mm 3 m/S 730 mmHg 82%
    21:00 +24°C° 0,6 mm 3 m/S 730 mmHg 84%
    22:00 +23°C° 0,6 mm 2 m/S 730 mmHg 85%
    23:00 +23°C° 0,6 mm 2 m/S 730 mmHg 87%

    übermorgen, 24 Juli, Dienstag

    Zeit Temperatur Niederschläge Wind Luftdruck Luftfeuchtigkeit
    00:00 +23°C° 1,1 mm 2 m/S 730 mmHg 88%
    01:00 +23°C° 1,1 mm 1 m/S 730 mmHg 88%
    02:00 +22°C° 1,1 mm 1 m/S 730 mmHg 89%
    03:00 +21°C° 1,6 mm 2 m/S 729 mmHg 89%
    04:00 +21°C° 1,6 mm 2 m/S 729 mmHg 89%
    05:00 +21°C° 1,6 mm 2 m/S 729 mmHg 89%
    06:00 +21°C° 0,5 mm 2 m/S 729 mmHg 88%
    07:00 +21°C° 0,5 mm 3 m/S 730 mmHg 87%
    08:00 +21°C° 0,5 mm 3 m/S 730 mmHg 86%
    09:00 +24°C° 0,3 mm 3 m/S 730 mmHg 80%
    10:00 +25°C° 0,3 mm 3 m/S 730 mmHg 73%
    11:00 +26°C° 0,3 mm 4 m/S 731 mmHg 67%
    12:00 +27°C° 0,7 mm 3 m/S 731 mmHg 64%
    13:00 +28°C° 0,7 mm 3 m/S 731 mmHg 61%
    14:00 +28°C° 0,7 mm 3 m/S 730 mmHg 58%
    15:00 +28°C° 0,5 mm 3 m/S 730 mmHg 59%
    16:00 +28°C° 0,5 mm 3 m/S 730 mmHg 61%
    17:00 +28°C° 0,5 mm 4 m/S 730 mmHg 62%
    18:00 +26°C° 0,9 mm 3 m/S 730 mmHg 69%
    19:00 +24°C° 0,9 mm 2 m/S 731 mmHg 77%
    20:00 +23°C° 0,9 mm 2 m/S 731 mmHg 85%
    21:00 +21°C° 0 mm 2 m/S 731 mmHg 85%
    22:00 +21°C° 0 mm 2 m/S 731 mmHg 85%
    23:00 +21°C° 0 mm 2 m/S 731 mmHg 86%

    25 Juli, Mittwoch

    Zeit Temperatur Niederschläge Wind Luftdruck Luftfeuchtigkeit
    00:00 +20°C° 0,2 mm 2 m/S 731 mmHg 87%
    01:00 +20°C° 0,2 mm 2 m/S 731 mmHg 88%
    02:00 +20°C° 0,2 mm 2 m/S 731 mmHg 89%
    03:00 +20°C° 0 mm 2 m/S 731 mmHg 90%
    04:00 +19°C° 0 mm 3 m/S 731 mmHg 91%
    05:00 +19°C° 0 mm 3 m/S 731 mmHg 92%
    06:00 +20°C° 0,1 mm 3 m/S 731 mmHg 88%
    07:00 +22°C° 0,1 mm 4 m/S 731 mmHg 83%
    08:00 +23°C° 0,1 mm 4 m/S 732 mmHg 79%
    09:00 +26°C° 1 mm 4 m/S 732 mmHg 72%
    10:00 +27°C° 1 mm 4 m/S 732 mmHg 66%
    11:00 +28°C° 1 mm 4 m/S 732 mmHg 60%
    12:00 +29°C° 0,4 mm 4 m/S 732 mmHg 58%
    13:00 +30°C° 0,4 mm 4 m/S 732 mmHg 55%
    14:00 +30°C° 0,4 mm 5 m/S 732 mmHg 53%
    15:00 +30°C° 0,2 mm 4 m/S 732 mmHg 54%
    16:00 +29°C° 0,2 mm 4 m/S 732 mmHg 56%
    17:00 +29°C° 0,2 mm 3 m/S 732 mmHg 57%
    18:00 +28°C° 0 mm 3 m/S 732 mmHg 63%
    19:00 +26°C° 0 mm 2 m/S 732 mmHg 69%
    20:00 +25°C° 0 mm 2 m/S 732 mmHg 75%
    21:00 +24°C° 0,1 mm 2 m/S 732 mmHg 78%
    22:00 +23°C° 0,1 mm 2 m/S 732 mmHg 81%
    23:00 +23°C° 0,1 mm 1 m/S 733 mmHg 84%

    26 Juli, Donnerstag

    Zeit Temperatur Niederschläge Wind Luftdruck Luftfeuchtigkeit
    00:00 +22°C° 0 mm 1 m/S 733 mmHg 85%
    01:00 +22°C° 0 mm 1 m/S 733 mmHg 86%
    02:00 +22°C° 0 mm 1 m/S 733 mmHg 87%
    03:00 +21°C° 0 mm 1 m/S 733 mmHg 87%
    04:00 +21°C° 0 mm 1 m/S 733 mmHg 87%
    05:00 +20°C° 0 mm 2 m/S 733 mmHg 87%
    06:00 +23°C° 0 mm 2 m/S 733 mmHg 81%
    07:00 +24°C° 0 mm 2 m/S 734 mmHg 75%
    08:00 +26°C° 0 mm 2 m/S 734 mmHg 68%
    09:00 +27°C° 0 mm 2 m/S 734 mmHg 63%
    10:00 +28°C° 0 mm 2 m/S 734 mmHg 58%
    11:00 +30°C° 0 mm 3 m/S 734 mmHg 52%
    12:00 +30°C° 0 mm 3 m/S 734 mmHg 50%
    13:00 +31°C° 0 mm 3 m/S 734 mmHg 49%
    14:00 +33°C° 0 mm 3 m/S 734 mmHg 47%
    15:00 +31°C° 0 mm 3 m/S 734 mmHg 49%
    16:00 +31°C° 0 mm 3 m/S 734 mmHg 52%
    17:00 +30°C° 0 mm 3 m/S 734 mmHg 55%
    18:00 +28°C° 0 mm 3 m/S 734 mmHg 62%
    19:00 +27°C° 0 mm 2 m/S 734 mmHg 70%
    20:00 +25°C° 0 mm 2 m/S 734 mmHg 77%
    21:00 +24°C° 0 mm 1 m/S 734 mmHg 79%
    22:00 +23°C° 0 mm 1 m/S 734 mmHg 82%
    23:00 +23°C° 0 mm 1 m/S 734 mmHg 84%

    27 Juli, Freitag

    Zeit Temperatur Niederschläge Wind Luftdruck Luftfeuchtigkeit
    00:00 +23°C° 0 mm 1 m/S 734 mmHg 84%
    01:00 +22°C° 0 mm 1 m/S 734 mmHg 84%
    02:00 +22°C° 0 mm 1 m/S 734 mmHg 84%
    03:00 +22°C° 0 mm 1 m/S 734 mmHg 84%
    04:00 +22°C° 0 mm 1 m/S 734 mmHg 84%
    05:00 +21°C° 0 mm 1 m/S 735 mmHg 85%
    06:00 +23°C° 0 mm 1 m/S 735 mmHg 78%
    07:00 +25°C° 0 mm 1 m/S 735 mmHg 71%
    08:00 +26°C° 0 mm 2 m/S 735 mmHg 65%
    09:00 +28°C° 0 mm 2 m/S 735 mmHg 59%
    10:00 +29°C° 0 mm 2 m/S 735 mmHg 53%
    11:00 +31°C° 0 mm 2 m/S 735 mmHg 47%
    12:00 +32°C° 0 mm 2 m/S 735 mmHg 44%
    13:00 +32°C° 0 mm 2 m/S 735 mmHg 42%
    14:00 +34°C° 0 mm 2 m/S 735 mmHg 40%
    15:00 +34°C° 0 mm 2 m/S 735 mmHg 42%
    16:00 +32°C° 0 mm 2 m/S 735 mmHg 44%
    17:00 +32°C° 0 mm 2 m/S 734 mmHg 46%
    18:00 +30°C° 0 mm 2 m/S 735 mmHg 51%
    19:00 +28°C° 0 mm 2 m/S 735 mmHg 57%
    20:00 +26°C° 0 mm 1 m/S 735 mmHg 63%
    21:00 +26°C° 0 mm 1 m/S 735 mmHg 64%
    22:00 +25°C° 0 mm 1 m/S 735 mmHg 64%
    23:00 +25°C° 0 mm 1 m/S 735 mmHg 65%
    Mehr zeigen